CW5699 Weather Reports


Display with metric or nautical units.
time (UTC)temp
F
wind
direction
speed
MPH
gust
MPH
rain 1hr
in
rain 24hr
in
rain mn
in
humidity
%
barometer
mb
20221208021747 33 349 2.0 6.0 0.00 0.00 0.00 65 1017.3
20221208020746 34 15 3.0 7.0 0.00 0.00 0.00 64 1017.3
20221208015746 34 22 3.0 7.0 0.00 0.00 0.00 63 1017.2
20221208014746 34 11 4.0 9.0 0.00 0.00 0.00 62 1017.2
20221208013807 35 4 2.0 5.0 0.00 0.00 0.00 60 1017.2
20221208012746 35 4 1.0 5.0 0.00 0.00 0.00 58 1017.3
20221208011808 36 7 4.0 7.0 0.00 0.00 0.00 57 1017.4
20221208010746 36 5 4.0 7.0 0.00 0.00 0.00 57 1017.4
20221208005746 36 354 3.0 5.0 0.00 0.00 0.00 56 1017.4
20221208004746 37 345 4.0 7.0 0.00 0.00 0.00 54 1017.3
20221208003746 37 7 3.0 5.0 0.00 0.00 0.00 53 1017.3
20221208002746 38 324 1.0 5.0 0.00 0.00 0.00 51 1017.2
20221208001748 38 322 2.0 7.0 0.00 0.00 0.00 50 1017.3
20221208000830 39 332 1.0 6.0 0.00 0.00 0.00 49 1017.3
20221207235808 39 318 2.0 7.0 0.00 0.00 0.00 48 1017.3
20221207234746 40 278 1.0 4.0 0.00 0.00 0.00 48 1017.3
20221207233747 41 267 0.0 0.0 0.00 0.00 0.00 46 1017.2
20221207232746 41 267 0.0 4.0 0.00 0.00 0.00 44 1017.3
20221207231746 42 155 0.0 1.0 0.00 0.00 0.00 43 1017.2
20221207230747 42 153 0.0 0.0 0.00 0.00 0.00 44 1017.1
20221207225808 43 153 0.0 0.0 0.00 0.00 0.00 44 1017.1
20221207224746 43 153 0.0 0.0 0.00 0.00 0.00 43 1017.2
20221207223747 43 153 0.0 0.0 0.00 0.00 0.00 40 1017.1
20221207222746 43 153 0.0 0.0 0.00 0.00 0.00 41 1017.2
20221207221746 43 153 0.0 0.0 0.00 0.00 0.00 41 1017.1
20221207220746 44 153 0.0 0.0 0.00 0.00 0.00 41 1017.2
20221207215808 44 153 0.0 0.0 0.00 0.00 0.00 41 1017.1
20221207214746 43 153 0.0 5.0 0.00 0.00 0.00 41 1017.2
20221207213807 43 168 1.0 4.0 0.00 0.00 0.00 40 1017.1
20221207212746 43 200 0.0 0.0 0.00 0.00 0.00 41 1017.1
20221207211746 43 200 0.0 5.0 0.00 0.00 0.00 39 1017.1
20221207210746 44 198 4.0 6.0 0.00 0.00 0.00 38 1017.2
20221207205746 44 179 4.0 7.0 0.00 0.00 0.00 38 1017.1
20221207204746 44 144 0.0 8.0 0.00 0.00 0.00 39 1017.3
20221207203746 45 181 5.0 8.0 0.00 0.00 0.00 39 1017.2
20221207202807 45 159 5.0 8.0 0.00 0.00 0.00 39 1017.2
20221207201746 44 153 6.0 9.0 0.00 0.00 0.00 41 1017.3
20221207200807 43 135 7.0 11.0 0.00 0.00 0.00 41 1017.4
20221207195747 42 146 4.0 7.0 0.00 0.00 0.00 42 1017.5
20221207194746 42 150 4.0 7.0 0.00 0.00 0.00 41 1017.5
20221207193746 42 121 4.0 6.0 0.00 0.00 0.00 41 1017.5
20221207192747 42 127 5.0 7.0 0.00 0.00 0.00 43 1017.6
20221207191747 42 127 2.0 6.0 0.00 0.00 0.00 42 1017.8
20221207190746 42 141 5.0 9.0 0.00 0.00 0.00 42 1017.9
20221207185746 42 121 4.0 11.0 0.00 0.00 0.00 43 1018.0
20221207184830 41 104 7.0 12.0 0.00 0.00 0.00 44 1018.0
20221207183746 41 109 4.0 8.0 0.00 0.00 0.00 46 1018.2
20221207182746 40 108 3.0 8.0 0.00 0.00 0.00 47 1018.5
20221207181747 39 122 0.0 7.0 0.00 0.00 0.00 47 1018.5
20221207180747 38 134 4.0 6.0 0.00 0.00 0.00 47 1018.7
20221207175807 38 138 1.0 4.0 0.00 0.00 0.00 53 1018.8
20221207174746 36 138 0.0 4.0 0.00 0.00 0.00 57 1019.0
20221207173749 35 138 0.0 5.0 0.00 0.00 0.00 54 1019.1
20221207172807 35 138 2.0 5.0 0.00 0.00 0.00 55 1019.2
20221207171746 35 138 0.0 7.0 0.00 0.00 0.00 56 1019.3
20221207170808 36 132 4.0 7.0 0.00 0.00 0.00 53 1019.3
20221207165746 36 106 5.0 6.0 0.00 0.00 0.00 51 1019.2
20221207164747 35 80 3.0 6.0 0.00 0.01 0.00 53 1019.1
20221207163746 35 64 2.0 7.0 0.00 0.16 0.00 56 1018.7
20221207162746 34 49 1.0 6.0 0.00 0.25 0.00 57 1018.8
20221207155807 32 17 0.0 0.0 0.00 0.29 0.00 61 1018.9
20221207154747 31 17 0.0 1.0 0.00 0.30 0.00 68 1018.9
20221207153746 29 17 0.0 0.0 0.00 0.31 0.00 71 1018.9
20221207150746 24 15 1.0 2.0 0.00 0.31 0.00 81 1018.8
20221207145747 22 15 0.0 3.0 0.00 0.31 0.00 81 1018.6
20221207144746 21 15 0.0 1.0 0.00 0.31 0.00 82 1018.6
20221207143746 20 15 0.0 4.0 0.00 0.31 0.00 82 1018.5
20221207142746 19 17 0.0 0.0 0.00 0.31 0.00 82 1018.4
20221207141807 19 17 0.0 0.0 0.00 0.31 0.00 82 1018.5
20221207140746 19 17 0.0 4.0 0.00 0.31 0.00 81 1018.5
20221207135808 19 13 3.0 5.0 0.00 0.31 0.00 80 1018.3
20221207134746 19 12 0.0 0.0 0.00 0.31 0.00 80 1018.4
20221207133746 19 12 0.0 4.0 0.00 0.31 0.00 81 1018.4
20221207132807 19 12 4.0 5.0 0.00 0.31 0.00 81 1018.2
20221207131746 19 15 2.0 3.0 0.00 0.31 0.00 81 1018.1
20221207130746 19 16 0.0 3.0 0.00 0.31 0.00 82 1018.2
20221207125746 19 4 0.0 3.0 0.00 0.31 0.00 81 1018.1
20221207124745 19 9 0.0 0.0 0.00 0.31 0.00 82 1018.1
20221207123746 20 9 0.0 0.0 0.00 0.31 0.00 82 1018.1
20221207122746 20 9 0.0 0.0 0.00 0.31 0.00 82 1017.9
20221207121746 19 9 0.0 0.0 0.00 0.31 0.00 82 1017.9
20221207120745 20 9 0.0 0.0 0.00 0.31 0.00 82 1017.8
20221207115746 20 9 0.0 0.0 0.00 0.31 0.00 82 1017.7
20221207114746 20 9 0.0 0.0 0.00 0.31 0.00 81 1017.5
20221207113746 21 9 0.0 0.0 0.00 0.31 0.00 81 1017.5
20221207112746 21 9 0.0 0.0 0.00 0.31 0.00 81 1017.5
20221207111747 21 9 0.0 0.0 0.00 0.31 0.00 79 1017.5
20221207110807 21 11 0.0 0.0 0.00 0.31 0.00 78 1017.4
20221207105745 22 360 0.0 3.0 0.00 0.31 0.00 78 1017.3
20221207104746 22 316 0.0 3.0 0.00 0.31 0.00 78 1017.2
20221207103743 22 316 0.0 0.0 0.00 0.31 0.00 78 1017.3
20221207102744 22 317 0.0 0.0 0.00 0.31 0.00 78 1017.2
20221207101804 22 311 0.0 3.0 0.00 0.31 0.00 79 1017.1
20221207100745 22 349 0.0 4.0 0.00 0.31 0.00 78 1017.1
20221207095743 22 345 0.0 4.0 0.00 0.31 0.00 78 1017.3
20221207094826 22 312 0.0 0.0 0.00 0.31 0.00 77 1017.3
20221207093743 23 312 0.0 0.0 0.00 0.31 0.00 77 1017.2
20221207092745 23 312 0.0 0.0 0.00 0.31 0.00 77 1017.2
20221207091743 23 312 0.0 5.0 0.00 0.31 0.00 77 1017.2
20221207090744 23 312 0.0 0.0 0.00 0.31 0.00 77 1017.1
20221207085744 23 312 0.0 0.0 0.00 0.31 0.00 76 1017.0
20221207084744 23 312 0.0 7.0 0.00 0.31 0.00 77 1016.8
20221207083744 23 5 0.0 7.0 0.00 0.31 0.00 77 1016.8
20221207082804 23 48 0.0 0.0 0.00 0.31 0.00 77 1016.9
20221207081745 23 48 0.0 0.0 0.00 0.31 0.00 76 1016.6
20221207080743 24 48 2.0 3.0 0.00 0.31 0.00 76 1016.3
20221207075743 24 49 0.0 0.0 0.00 0.31 0.00 76 1016.2
20221207074743 24 49 0.0 0.0 0.00 0.31 0.00 75 1016.2
20221207073826 24 49 0.0 0.0 0.00 0.31 0.00 74 1016.2
20221207072806 24 49 0.0 4.0 0.00 0.31 0.00 74 1015.9
20221207071743 25 50 0.0 5.0 0.00 0.31 0.00 74 1016.0
20221207070744 25 50 2.0 5.0 0.00 0.31 0.00 72 1016.0
20221207065744 26 50 1.0 4.0 0.00 0.31 0.31 72 1015.8
20221207064744 26 56 0.0 1.0 0.00 0.31 0.31 70 1015.6
20221207063744 26 56 0.0 5.0 0.00 0.31 0.31 69 1015.7
20221207062744 27 62 0.0 5.0 0.00 0.31 0.31 69 1015.7
20221207061744 27 107 1.0 6.0 0.00 0.31 0.31 69 1015.8
20221207060744 27 103 0.0 4.0 0.00 0.31 0.31 66 1015.6
20221207055743 28 104 0.0 5.0 0.00 0.31 0.31 65 1015.5
20221207054743 29 150 2.0 5.0 0.00 0.31 0.31 63 1015.4
20221207053743 29 181 0.0 3.0 0.00 0.31 0.31 63 1015.4
20221207052805 29 174 1.0 7.0 0.00 0.31 0.31 64 1015.4
20221207051745 27 155 3.0 6.0 0.00 0.31 0.31 67 1015.1
20221207050744 28 156 4.0 6.0 0.00 0.31 0.31 66 1015.0
20221207045804 29 204 0.0 4.0 0.00 0.31 0.31 65 1014.9
20221207044744 30 195 2.0 5.0 0.00 0.31 0.31 62 1014.8
20221207043744 30 121 1.0 6.0 0.00 0.31 0.31 60 1014.7
20221207042743 31 113 0.0 5.0 0.00 0.31 0.31 59 1014.6
20221207041744 31 113 3.0 6.0 0.00 0.31 0.31 57 1014.5
20221207040805 32 106 6.0 8.0 0.00 0.31 0.31 58 1014.4
20221207035743 32 114 5.0 7.0 0.00 0.31 0.31 56 1014.4
20221207034743 33 106 5.0 9.0 0.00 0.31 0.31 56 1014.4
20221207033744 31 113 6.0 9.0 0.00 0.31 0.31 57 1014.4
20221207032743 31 131 4.0 8.0 0.00 0.31 0.31 58 1014.3
20221207031744 32 186 1.0 7.0 0.00 0.31 0.31 57 1014.1
20221207030743 32 113 0.0 7.0 0.00 0.31 0.31 56 1014.0
20221207025743 33 116 0.0 9.0 0.00 0.31 0.31 56 1013.9
20221207024743 33 105 6.0 9.0 0.00 0.31 0.31 54 1013.5
20221207023744 33 109 8.0 9.0 0.00 0.31 0.31 54 1013.4
20221207022743 32 121 3.0 7.0 0.00 0.31 0.31 56 1013.5